CAPE
0 0 0 0 0 0 0 0 0 0 0 0 0 0 0 0 0 0 0 0 0 0 0 0 0 0 0 0 0 0 46 146 161 177 158 98 208 14 12 2 0 0 0 0
0 0 0 0 0 0 0 0 0 0 0 0 0 0 0 0 0 0 0 0 0 0 0 0 0 0 0 0 0 0 2 36 88 91 48 0 0 0 0 0 2 1 0 0
0 0 0 0 0 0 0 0 0 0 0 0 0 0 0 0 0 0 0 0 0 0 0 0 0 0 0 0 0 0 0 1 14 1 0 0 0 0 0 0 0 0 1 1
0 0 0 0 0 0 0 0 0 0 0 0 0 0 0 0 0 0 0 0 0 0 0 0 0 0 0 0 0 0 0 0 0 0 0 0 0 0 0 0 0 1 1 1
0 0 0 0 0 0 0 0 0 0 0 0 0 0 0 0 0 0 0 0 0 0 0 0 0 0 0 0 0 0 0 0 0 0 0 0 0 0 0 0 0 1 1 1
0 0 0 0 0 0 0 0 0 0 0 0 0 0 0 0 0 0 0 0 0 0 0 0 0 0 0 0 0 0 0 0 0 0 0 0 0 0 0 0 0 1 2 2
0 0 0 0 0 0 0 0 0 0 0 0 0 0 0 0 0 0 0 0 0 0 0 0 0 0 0 0 0 0 0 0 0 0 0 0 0 0 0 0 0 0 2 1
0 0 0 0 0 0 0 0 0 0 0 0 0 0 0 0 0 0 0 0 0 0 0 0 0 0 0 0 0 0 0 0 0 0 0 0 0 0 0 0 0 0 0 0
0 0 0 0 0 0 0 0 0 0 0 0 0 0 0 0 0 0 0 0 0 0 0 0 0 0 0 0 0 0 0 0 0 0 0 0 0 0 0 0 0 0 0 0
0 0 0 0 0 0 0 0 0 0 0 0 0 0 0 0 0 0 0 0 0 0 0 0 0 0 0 0 0 0 0 0 0 0 0 0 0 0 0 0 0 0 0 0
0 0 0 0 0 0 0 0 0 0 0 0 0 0 0 0 0 0 0 0 0 0 0 0 0 0 0 0 0 0 0 0 0 0 0 0 0 0 0 0 0 0 0 0
0 0 0 0 0 0 0 0 0 0 0 0 0 0 0 0 0 0 0 0 0 0 0 0 0 0 0 0 0 0 0 0 0 0 0 0 0 0 0 0 0 0 0 0
0 0 0 0 0 0 0 0 0 0 0 0 0 0 0 0 0 0 0 0 0 0 0 0 0 0 0 0 0 0 0 0 0 0 0 0 0 0 0 0 0 0 0 0
0 1 0 0 0 0 0 0 0 0 0 0 0 0 0 0 0 0 0 0 0 0 0 0 0 0 0 0 0 0 0 0 0 0 0 0 0 0 0 0 0 0 0 0
0 0 0 0 0 0 0 0 0 0 0 0 0 0 0 0 0 0 0 0 0 0 0 0 0 0 0 0 0 0 0 0 0 0 0 0 0 0 0 0 0 0 0 0
1 0 1 0 0 0 0 0 0 0 0 0 0 0 0 0 0 0 0 0 0 0 0 0 0 0 0 0 0 0 0 0 0 0 0 0 0 0 0 0 0 0 0 0
0 0 1 0 0 1 0 0 0 0 0 0 0 0 0 0 0 0 0 0 0 0 0 0 0 0 0 0 0 0 0 0 0 0 0 0 0 0 0 0 0 0 0 0
0 0 0 0 0 0 0 0 0 0 0 0 0 0 0 0 0 0 0 0 0 0 0 0 0 0 0 0 0 0 0 0 0 0 0 0 0 0 0 0 0 0 0 0
0 0 0 0 0 0 0 0 0 0 0 0 0 0 0 0 0 0 0 0 0 0 0 0 0 0 0 0 0 0 0 0 0 0 0 0 0 0 0 0 0 0 0 0
0 0 0 0 0 0 0 0 0 0 0 0 0 0 0 0 0 0 0 0 0 0 0 0 0 0 0 0 0 0 0 0 0 0 0 0 0 0 0 0 0 0 0 0
0 0 0 0 0 0 0 0 0 0 0 0 0 0 0 0 0 0 0 0 0 0 0 0 0 0 0 0 0 0 0 0 0 0 0 0 0 0 0 0 0 0 0 0
0 0 0 0 0 0 0 0 0 0 0 0 0 0 0 0 0 0 0 0 0 0 0 0 0 0 0 0 0 0 0 0 0 0 0 0 0 0 0 0 0 0 0 0
0 0 0 0 0 0 0 0 0 0 0 0 0 0 0 0 0 0 0 0 0 0 0 0 0 0 0 0 0 0 0 0 0 0 0 0 0 0 0 0 0 0 0 0
0 0 0 0 0 0 0 0 0 0 0 0 0 0 0 0 0 0 0 0 0 0 0 0 0 0 0 0 0 0 0 0 0 0 0 0 0 0 0 0 0 0 0 0
0 0 0 0 0 0 0 0 0 0 0 0 0 0 0 0 0 0 0 0 0 0 0 0 0 0 0 0 0 0 0 0 0 0 0 0 0 0 0 0 0 0 0 0
0 0 0 0 0 0 0 0 0 0 0 0 0 0 0 0 0 0 0 0 0 0 0 0 0 0 0 0 0 0 0 0 0 0 0 0 0 0 0 0 0 1 1 0
CIN
0 0 0 0 0 0 0 0 0 0 0 0 0 0 0 0 0 0 0 0 0 0 0 0 0 0 0 0 0 0 -501 -428 -373 -314 -277 -256 -157 -244 -196 -13 0 0 0 0
0 0 0 0 0 0 0 0 0 0 0 0 0 0 0 0 0 0 0 0 0 0 0 0 0 0 0 0 0 0 -108 -545 -443 -403 -351 0 0 0 0 0 -65 0 0 0
0 0 0 0 0 0 0 0 0 0 0 0 0 0 0 0 0 0 0 0 0 0 0 0 0 0 0 0 0 0 0 -150 -567 -260 0 0 0 0 0 0 0 0 0 0
0 0 0 0 0 0 0 0 0 0 0 0 0 0 0 0 0 0 0 0 0 0 0 0 0 0 0 0 0 0 0 0 0 0 0 0 0 0 0 0 0 0 0 0
0 0 0 0 0 0 0 0 0 0 0 0 0 0 0 0 0 0 0 0 0 0 0 0 0 0 0 0 0 0 0 0 0 0 0 0 0 0 0 0 0 0 0 0
0 0 0 0 0 0 0 0 0 0 0 0 0 0 0 0 0 0 0 0 0 0 0 0 0 0 0 0 0 0 0 0 0 0 0 0 0 0 0 0 0 0 0 0
0 0 0 0 0 0 0 0 0 0 0 0 0 0 0 0 0 0 0 0 0 0 0 0 0 0 0 0 0 0 0 0 0 0 0 0 0 0 0 0 0 0 0 0
0 0 0 0 0 0 0 0 0 0 0 0 0 0 0 0 0 0 0 0 0 0 0 0 0 0 0 0 0 0 0 0 0 0 0 0 0 0 0 0 0 0 0 0
0 0 0 0 0 0 0 0 0 0 0 0 0 0 0 0 0 0 0 0 0 0 0 0 0 0 0 0 0 0 0 0 0 0 0 0 0 0 0 0 0 0 0 0
0 0 0 0 0 0 0 0 0 0 0 0 0 0 0 0 0 0 0 0 0 0 0 0 0 0 0 0 0 0 0 0 0 0 0 0 0 0 0 0 0 0 0 0
0 0 0 0 0 0 0 0 0 0 0 0 0 0 0 0 0 0 0 0 0 0 0 0 0 0 0 0 0 0 0 0 0 0 0 0 0 0 0 0 0 0 0 0
0 0 0 0 0 0 0 0 0 0 0 0 0 0 0 0 0 0 0 0 0 0 0 0 0 0 0 0 0 0 0 0 0 0 0 0 0 0 0 0 0 0 0 0
0 0 0 0 0 0 0 0 0 0 0 0 0 0 0 0 0 0 0 0 0 0 0 0 0 0 0 0 0 0 0 0 0 0 0 0 0 0 0 0 0 0 0 0
0 0 0 0 0 0 0 0 0 0 0 0 0 0 0 0 0 0 0 0 0 0 0 0 0 0 0 0 0 0 0 0 0 0 0 0 0 0 0 0 0 0 0 0
0 0 0 0 0 0 0 0 0 0 0 0 0 0 0 0 0 0 0 0 0 0 0 0 0 0 0 0 0 0 0 0 0 0 0 0 0 0 0 0 0 0 0 0
0 0 0 0 0 0 0 0 0 0 0 0 0 0 0 0 0 0 0 0 0 0 0 0 0 0 0 0 0 0 0 0 0 0 0 0 0 0 0 0 0 0 0 0
0 0 0 0 0 0 0 0 0 0 0 0 0 0 0 0 0 0 0 0 0 0 0 0 0 0 0 0 0 0 0 0 0 0 0 0 0 0 0 0 0 0 0 0
0 0 0 0 0 0 0 0 0 0 0 0 0 0 0 0 0 0 0 0 0 0 0 0 0 0 0 0 0 0 0 0 0 0 0 0 0 0 0 0 0 0 0 0
0 0 0 0 0 0 0 0 0 0 0 0 0 0 0 0 0 0 0 0 0 0 0 0 0 0 0 0 0 0 0 0 0 0 0 0 0 0 0 0 0 0 0 0
0 0 0 0 0 0 0 0 0 0 0 0 0 0 0 0 0 0 0 0 0 0 0 0 0 0 0 0 0 0 0 0 0 0 0 0 0 0 0 0 0 0 0 0
0 0 0 0 0 0 0 0 0 0 0 0 0 0 0 0 0 0 0 0 0 0 0 0 0 0 0 0 0 0 0 0 0 0 0 0 0 0 0 0 0 0 0 0
0 0 0 0 0 0 0 0 0 0 0 0 0 0 0 0 0 0 0 0 0 0 0 0 0 0 0 0 0 0 0 0 0 0 0 0 0 0 0 0 0 0 0 0
0 0 0 0 0 0 0 0 0 0 0 0 0 0 0 0 0 0 0 0 0 0 0 0 0 0 0 0 0 0 0 0 0 0 0 0 0 0 0 0 0 0 0 0
0 0 0 0 0 0 0 0 0 0 0 0 0 0 0 0 0 0 0 0 0 0 0 0 0 0 0 0 0 0 0 0 0 0 0 0 0 0 0 0 0 0 0 0
0 0 0 0 0 0 0 0 0 0 0 0 0 0 0 0 0 0 0 0 0 0 0 0 0 0 0 0 0 0 0 0 0 0 0 0 0 0 0 0 0 0 0 0
0 0 0 0 0 0 0 0 0 0 0 0 0 0 0 0 0 0 0 0 0 0 0 0 0 0 0 0 0 0 0 0 0 0 0 0 0 0 0 0 0 0 0 0
Wind_Speed
22 24 26 22 22 23 22 24 24 24 23 23 28 34 35 33 34 38 39 40 40 33 16 13 9 11 12 10 11 12 13 11 10 9 8 8 9 7 8 9 9 10 9 8
26 33 25 23 23 24 25 28 31 29 26 25 31 39 39 38 39 42 43 43 43 41 31 24 17 14 11 12 12 12 13 12 12 10 9 7 8 8 9 10 11 11 11 10
32 27 25 24 25 26 27 29 29 31 27 29 35 45 39 36 34 37 39 41 40 36 34 27 23 18 15 13 13 13 13 12 12 10 9 10 9 10 11 13 13 14 13 13
34 31 26 26 29 25 32 25 26 28 31 38 27 47 36 33 37 37 41 43 42 34 30 27 23 21 17 14 13 12 11 11 11 11 12 12 14 15 14 16 17 17 16 16
34 28 29 29 29 25 30 23 25 28 32 34 34 38 39 30 34 36 33 37 38 34 31 28 25 23 19 13 11 12 11 11 12 12 13 13 15 15 16 18 19 21 20 19
31 26 27 30 26 23 20 23 24 26 29 43 34 34 44 35 33 27 22 25 26 24 23 22 20 18 16 13 11 11 12 12 12 12 14 15 16 17 19 21 21 22 22 21
31 31 27 23 25 23 23 24 34 37 37 45 29 33 43 30 28 25 28 29 26 22 20 18 16 16 16 13 11 11 12 13 13 13 15 15 16 16 17 18 20 20 22 22
36 40 31 26 27 29 27 27 33 41 41 42 30 41 38 26 29 31 31 31 26 23 20 19 19 18 16 16 16 16 15 16 15 15 15 14 13 13 15 15 19 19 20 20
38 42 30 26 27 23 31 37 29 34 34 42 39 40 39 32 30 31 32 31 29 23 20 19 19 19 17 15 15 16 17 19 18 16 15 14 12 13 13 14 16 18 18 18
32 37 29 27 26 27 28 24 33 32 40 45 44 44 43 31 28 31 33 33 28 23 22 22 20 19 19 18 17 17 17 17 16 15 13 12 12 12 14 14 14 15 16 17
30 32 31 24 30 29 28 30 28 29 34 41 48 43 33 32 25 24 24 24 22 20 20 20 21 21 19 17 15 15 15 14 14 13 13 14 15 16 17 17 16 17 18 18
28 30 39 33 27 28 31 33 30 35 37 36 41 48 26 22 20 19 20 22 20 19 20 22 22 19 15 13 13 14 15 14 15 15 14 15 17 18 18 18 18 18 18 18
21 30 36 35 35 32 31 32 32 33 31 38 38 39 22 19 19 21 24 24 24 24 24 22 19 16 12 12 14 15 16 17 18 18 18 18 20 21 21 21 20 20 20 20
18 25 31 39 35 31 37 35 33 33 39 38 38 34 27 27 31 31 31 30 28 29 27 24 20 15 15 14 15 17 18 19 20 21 22 23 23 23 24 24 25 25 24 23
23 29 28 30 26 27 29 30 30 33 35 36 39 40 31 36 36 33 30 29 28 28 26 24 21 23 20 22 25 25 26 26 25 26 27 28 28 27 27 27 27 26 26 26
26 31 27 31 27 25 27 26 28 30 32 40 41 48 34 37 35 31 30 28 28 29 28 27 23 23 23 24 27 28 30 30 30 31 32 31 30 30 29 28 28 28 28 28
25 26 28 35 27 27 38 29 25 24 23 25 33 35 26 29 27 26 25 23 21 22 24 24 25 26 27 28 30 32 34 35 34 35 35 35 35 33 32 32 31 30 29 28
26 25 26 30 23 39 32 22 20 26 27 25 27 23 18 18 19 17 18 19 20 22 24 25 26 27 27 28 30 31 33 34 34 34 35 34 33 33 32 31 30 31 31 32
23 25 27 31 33 33 32 27 23 23 29 26 26 22 20 17 16 20 18 18 20 23 25 26 26 26 27 28 29 31 32 32 32 33 33 33 32 31 29 29 30 30 31 31
26 27 31 32 39 43 35 31 27 23 35 23 22 22 22 20 24 22 20 23 24 25 26 27 27 27 28 29 30 32 34 34 35 34 34 32 30 30 30 30 30 30 30 31
31 32 37 37 41 41 34 27 20 32 36 18 15 15 18 23 22 20 24 25 26 28 29 29 30 31 31 31 32 34 34 36 33 33 33 32 30 30 29 29 28 29 29 28
40 38 39 37 43 51 26 23 30 22 12 11 12 13 15 17 18 21 24 26 28 30 30 30 32 34 33 33 33 37 38 35 35 35 34 34 32 31 29 29 28 29 29 30
41 35 39 36 40 28 23 23 14 13 14 14 12 13 16 21 23 26 29 31 32 33 33 32 34 36 37 36 35 40 38 37 37 36 36 35 33 32 30 30 30 30 28 29
33 26 31 30 29 23 17 14 14 13 13 12 14 18 21 26 28 31 33 34 35 34 36 37 38 39 38 36 35 36 37 37 36 38 37 35 34 32 29 28 29 29 29 30
31 26 30 28 23 17 19 16 15 16 16 19 23 26 29 32 34 35 36 36 36 37 38 38 39 39 40 39 38 36 35 34 36 36 35 34 33 32 31 29 28 29 28 27
30 30 32 35 23 25 22 18 19 23 26 27 28 31 31 33 36 37 38 37 38 40 40 41 40 40 40 39 38 36 35 34 34 35 33 32 31 29 28 27 27 26 26 26
Wind_Direction
261 259 256 261 264 274 276 276 278 282 288 286 280 274 272 275 279 271 269 258 249 230 230 288 275 223 218 230 219 212 209 213 207 209 212 212 211 230 233 245 234 227 238 233
259 258 263 267 269 270 273 274 274 281 287 284 282 272 271 273 275 266 255 255 250 270 287 289 285 283 244 235 228 224 216 217 217 223 234 253 237 255 262 267 262 247 245 239
256 269 261 264 267 267 271 273 277 279 287 286 284 273 276 281 285 281 271 261 273 282 287 290 287 283 276 254 238 226 223 223 226 242 258 286 284 289 275 270 268 267 254 245
261 261 267 262 264 268 270 278 281 282 283 278 290 273 280 284 283 283 278 273 272 286 291 295 295 293 284 263 252 243 239 237 247 248 251 254 263 270 273 271 273 268 269 257
259 263 259 264 267 269 273 280 281 283 281 282 281 281 277 288 286 289 291 288 284 288 293 293 295 297 291 286 258 253 255 259 262 254 257 263 275 282 286 283 275 273 272 266
262 270 264 264 269 271 275 278 285 285 284 274 278 279 277 285 290 294 303 307 301 300 302 303 304 304 304 298 282 270 270 272 271 267 271 272 278 283 288 286 279 276 272 269
261 262 268 268 267 269 265 270 273 274 272 272 283 279 278 290 289 291 296 302 308 310 309 311 311 310 309 302 289 285 283 285 285 281 277 279 282 284 282 284 282 278 274 273
255 260 257 261 263 263 258 260 266 270 272 276 282 275 282 290 290 293 296 299 303 306 306 307 307 307 306 303 298 295 295 295 294 292 288 288 288 289 291 288 287 284 279 275
257 261 267 262 263 255 262 259 268 276 279 277 277 280 285 289 293 299 299 300 300 301 304 306 311 312 310 307 305 301 299 301 301 299 297 296 296 297 296 295 293 290 287 284
260 263 269 265 264 262 261 261 267 270 272 273 276 279 281 291 293 301 301 299 297 296 299 304 307 309 310 310 308 305 305 304 305 305 306 307 308 309 308 306 300 296 293 291
259 263 269 265 259 254 260 260 268 272 270 273 276 280 290 291 295 301 312 318 315 302 302 305 307 310 312 311 312 312 313 315 314 311 310 310 311 311 310 309 305 300 298 295
257 265 260 264 272 268 261 263 256 265 271 274 276 277 290 296 302 311 316 321 325 324 316 312 309 312 312 314 319 315 315 317 318 316 315 312 312 313 312 311 309 305 301 299
255 261 263 268 268 267 264 262 262 266 276 270 272 278 283 290 300 309 309 312 313 316 317 320 318 310 303 310 315 317 315 313 316 316 314 312 310 309 310 309 309 307 303 300
263 263 260 263 271 269 261 263 262 260 265 268 268 274 272 279 290 296 299 302 305 308 310 314 314 311 304 303 311 316 312 312 313 311 310 309 308 307 306 306 305 303 301 298
259 265 263 269 273 271 270 266 264 259 262 266 273 272 275 278 287 293 297 301 306 308 309 309 309 303 302 302 303 305 305 306 307 307 307 305 305 305 304 303 302 302 301 298
261 267 268 268 269 272 273 271 268 267 270 273 276 275 281 284 286 290 295 296 300 305 304 305 308 309 307 306 305 305 304 305 304 303 304 305 305 303 302 302 301 300 298 298
259 262 267 267 267 271 270 262 265 272 275 275 274 281 278 284 289 293 298 306 305 304 307 309 308 307 307 307 307 306 305 305 303 302 302 303 302 302 302 300 297 298 297 296
257 260 267 270 264 264 278 281 266 267 280 271 285 288 288 286 293 298 301 304 306 307 308 310 312 313 314 312 311 310 310 309 309 306 305 305 306 304 302 300 299 297 296 293
256 259 265 266 265 278 278 275 276 272 280 269 273 280 287 290 292 297 304 309 309 308 308 309 314 316 318 318 318 316 315 315 314 312 312 311 310 308 306 304 302 300 297 296
252 258 263 267 267 267 279 277 279 278 276 277 273 275 278 281 280 287 302 307 308 311 311 311 314 316 316 317 317 316 316 316 315 315 315 314 314 312 309 307 305 304 302 299
252 260 260 263 267 273 276 286 282 266 281 280 277 278 284 282 291 299 307 308 309 310 309 311 312 311 314 316 316 314 316 313 318 319 318 316 315 314 312 311 309 307 305 303
255 259 261 264 267 269 278 274 269 279 289 289 287 288 293 300 307 310 312 313 314 313 314 313 311 311 315 316 315 311 312 315 315 315 315 315 314 314 313 311 310 308 306 303
258 261 262 264 270 283 281 276 272 278 278 285 288 297 301 301 304 307 307 308 310 311 311 312 312 311 312 312 312 309 311 313 313 313 312 312 312 311 311 309 308 308 307 306
261 265 267 268 270 269 266 272 279 281 282 287 295 299 302 301 303 303 305 306 307 308 308 309 309 309 310 313 314 313 314 314 313 311 310 311 310 309 309 309 306 306 307 305
263 256 260 267 270 265 271 270 272 281 287 289 293 296 298 299 300 302 304 305 305 306 308 309 309 308 309 312 312 315 316 315 313 312 312 311 310 308 306 305 305 305 307 306
259 261 257 263 257 268 262 267 277 280 285 290 293 295 299 300 300 303 304 305 305 305 307 308 309 309 310 312 313 314 316 314 312 311 312 312 311 310 309 308 307 308 307 307